Location: Asheville, NC
(35.6000°N, 82.5500°W)
Time: 19:46:20
(UTC-04:00)

Vanguard 2 Rocket - Pass Details

Date: 14 March 2018
Orbit: 553 x 3328 km, 32.9° (Epoch: 23 June)

Event Time Altitude Azimuth Distance (km) Brightness Sun altitude
Rises 22:05:57 0° 274° (W) 3,137 10.7 -30.5°
Reaches altitude 10° 22:08:00 10° 268° (W) 2,400 9.8 -30.9°
Enters shadow 22:12:57 48° 206° (SSW) 1,389 7.7 -31.8°
